Skip Page Navigation
NASA JPL Caltech
NASA Logo - Jet Propulsion Laboratory + View the NASA Portal
+ Center for Near-Earth Object Studies
JPL Home Earth Solar System Stars & Galaxies Technology
JPL Solar System Dynamics
BODIES ORBITS EPHEMERIDES TOOLS PHYSICAL DATA DISCOVERY FAQ SITE MAP
IMPORTANT: The SSD Announcement email list is now available. Major changes are coming in the near future, including possible hostname and/or URL changes. To be notified of such changes, subscribe to this email list.

Please visit this page for more details.


JPL Small-Body Database Browser
Search: [ help ]  
47613 (2000 BP12)
Classification: Main-belt Asteroid          SPK-ID: 2047613
Ephemeris | Orbit Diagram | Orbital Elements | Mission Design | Physical Parameters | Discovery Circumstances | Close-Approach Data ]

[ show orbit diagram ]
Orbital Elements at Epoch 2458600.5 (2019-Apr-27.0) TDB
Reference: JPL 20 (heliocentric ecliptic J2000)
 Element Value Uncertainty (1-sigma)   Units 
e .1653422161696269 4.0857e-08  
a 3.185762408097856 2.2421e-08 au
q 2.65902139135307 1.2478e-07 au
i 1.110068458380189 4.633e-06 deg
node 352.7106795986933 0.00020123 deg
peri 213.6257183242644 0.00020161 deg
M 85.35210121247233 1.3243e-05 deg
tp 2458108.086197115980
(2017-Dec-20.58619712)
7.4336e-05 TDB
period 2076.913942598325
5.69
2.1926e-05
6.003e-08
d
yr
n .1733340956581098 1.8299e-09 deg/d
Q 3.712503424842644 2.6128e-08 au
  Orbit Determination Parameters
   # obs. used (total)      913  
   data-arc span      8014 days (21.94 yr)  
   first obs. used      1997-10-21  
   last obs. used      2019-09-30  
   planetary ephem.      DE431  
   SB-pert. ephem.      SB431-N16  
   condition code      0  
   norm. resid. RMS      .52612  
   source      ORB  
   producer      Otto Matic  
   solution date      2019-Nov-07 06:32:45  

Additional Information
 Earth MOID = 1.65515 au 
 Jupiter MOID = 1.25556 au 
 T_jup = 3.176 
[ show covariance matrix ]

Ephemeris | Orbit Diagram | Orbital Elements | Mission Design | Physical Parameters | Discovery Circumstances | Close-Approach Data ]

Physical Parameter Table
Parameter Symbol Value Units Sigma Reference Notes
absolute magnitude H 14.6   n/a MPO493191  
diameter diameter 9.395 km 0.179 urn:nasa:pds:neowise_diameters_albedos::2.0[mainbelt] (http://adsabs.harvard.edu/abs/2011ApJ...741...68M)  
geometric albedo albedo 0.035   0.004 urn:nasa:pds:neowise_diameters_albedos::2.0[mainbelt] (http://adsabs.harvard.edu/abs/2011ApJ...741...68M)  

47613 (2000 BP12)          Discovered 2000-Jan-28 by Spacewatch at Kitt Peak
Reference: 20020921/Numbers.arcLast Updated: 2004-04-19

[ show close-approach data ]
Alternate Designations
 2000 BP12 = 2001 KF27 
Ephemeris | Orbit Diagram | Orbital Elements | Mission Design | Physical Parameters | Discovery Circumstances | Close-Approach Data ]
ABOUT SSD CREDITS/AWARDS PRIVACY/COPYRIGHT GLOSSARY LINKS
FirstGov 2020-Jan-24 11:21 UT
(server date/time)  
NASA Home Page
Site Manager:   Ryan S. Park
Webmaster  Alan B. Chamberlin